[[{"header":{"parameterUnit":"m.s-1","parameterCategory":1,"la1":30.2991,"la2":30.254,"lo1":-89.0895,"lo2":-89.0444,"dy":0.0017,"dx":0.0017,"nx":28,"ny":28,"refTime":"2024-07-03T03:00:00:Z","depth":0,"parameterNumber":2,"parameterNumberName":"U-component_of_WINDS"},"data":[0,0,0,0,0,0,0,0,0,0,0,0,0,0,0,0,0,0,0,0,0,0,0,0,0,0,0,0,0,0,0,0,0,0,0,0,0,0,0,0,0,0,0,0,0,0,0,0,0,0,0,0,0,0,0,0,0,0,-0.3706,-0.3707,0,-0.3759,-0.376,-0.376,-0.3778,-0.3778,-0.3778,-0.3778,-0.3835,-0.3837,-0.3839,0,0,0,0,0,0,0,0,0,0,0,0,0,-0.3625,-0.3626,-0.3706,-0.3707,-0.3707,-0.3759,-0.376,-0.376,-0.3778,-0.3778,-0.3778,-0.3777,-0.3835,-0.3837,-0.3839,0,0,0,0,0,0,0,0,0,0,0,0,0,-0.3667,-0.3626,-0.3706,-0.3722,-0.3724,-0.3759,-0.376,-0.3761,-0.3778,-0.3778,-0.3778,-0.3777,-0.3834,-0.3836,-0.3839,-0.3862,0,0,-0.3847,-0.3848,0,0,0,0,0,0,0,0,-0.3665,-0.367,-0.3719,-0.3721,-0.3724,-0.3762,-0.3752,-0.3795,-0.3778,-0.3758,-0.3778,-0.3777,-0.3811,-0.3816,-0.3826,-0.3865,-0.3867,-0.3847,-0.3849,-0.385,-0.3851,0,0,0,0,0,0,0,-0.3662,-0.3668,-0.3727,-0.372,-0.3723,-0.3729,-0.3734,-0.376,-0.3786,-0.376,-0.3761,-0.3767,-0.3812,-0.3824,-0.3828,-0.3868,-0.3847,-0.385,-0.3851,-0.3852,-0.3929,-0.393,0,0,0,0,0,0,-0.3655,-0.3665,-0.3725,-0.3729,-0.3693,-0.373,-0.3737,-0.375,-0.3786,-0.3791,-0.3767,-0.3768,-0.382,-0.3825,-0.383,-0.386,-0.385,-0.3852,-0.3854,-0.3929,-0.3929,-0.393,0,0,0,0,0,0,-0.3654,-0.3661,-0.3723,-0.3697,-0.3706,-0.3732,-0.3747,-0.3751,-0.3763,-0.3791,-0.3796,-0.3774,-0.382,-0.3826,-0.3854,-0.3862,-0.3854,-0.3856,-0.3928,-0.3929,-0.393,-0.392,0,0,0,0,0,0,-0.3651,-0.366,-0.3668,-0.3697,-0.3707,-0.3745,-0.3747,-0.3752,-0.3767,-0.3768,-0.3799,-0.3804,-0.382,-0.385,-0.3857,-0.3866,-0.3858,-0.3928,-0.3929,-0.3929,-0.3919,-0.392,-0.3921,0,0,0,0,0,-0.3648,-0.3663,-0.3668,-0.3675,-0.3717,-0.3745,-0.3751,-0.3768,-0.3767,-0.3776,-0.3795,-0.3803,-0.386,-0.3853,-0.386,-0.387,-0.3927,-0.3928,-0.3929,-0.3919,-0.392,-0.3921,0,0,0,0,0,0,-0.3635,-0.3668,-0.3673,-0.3698,-0.3719,-0.3748,-0.376,-0.3768,-0.3791,-0.3791,-0.3812,-0.3819,-0.3845,-0.3861,-0.3851,-0.3895,-0.3894,-0.3897,-0.3884,-0.3885,-0.3885,-0.3882,-0.386,0,0,0,0,0,-0.3635,-0.3654,-0.3682,-0.3701,-0.3711,-0.3734,-0.3747,-0.3758,-0.3781,-0.379,-0.3811,-0.3833,-0.3857,-0.3872,-0.3895,-0.3922,-0.393,-0.3933,-0.3933,-0.3933,-0.3936,-0.3953,-0.3955,-0.3933,-0.3933,-0.3933,0,0,-0.3635,-0.3655,-0.3666,-0.3699,-0.3716,-0.3737,-0.3741,-0.3762,-0.3778,-0.3794,-0.3821,-0.3837,-0.3864,-0.3892,-0.3905,-0.3905,-0.3943,-0.3935,-0.3935,-0.3937,-0.3954,-0.3956,-0.3958,-0.3934,-0.3934,-0.3934,0,0,-0.3646,-0.3662,-0.3681,-0.3698,-0.3724,-0.3739,-0.3743,-0.3772,-0.3783,-0.3811,-0.3823,-0.3843,-0.3882,-0.3901,-0.3916,-0.3935,-0.3944,-0.3942,-0.3945,-0.3961,-0.3963,-0.3964,-0.3972,-0.3975,-0.3944,-0.3944,-0.3944,0,-0.3643,-0.3673,-0.3689,-0.371,-0.3725,-0.3739,-0.3759,-0.3775,-0.3808,-0.3818,-0.3818,-0.3868,-0.3887,-0.392,-0.3925,-0.3936,-0.3943,-0.3939,-0.3961,-0.3963,-0.3965,-0.3972,-0.3975,-0.3944,-0.3944,-0.3944,-0.3944,0,-0.3669,-0.369,-0.3702,-0.3732,-0.3748,-0.3768,-0.3789,-0.3804,-0.3814,-0.3829,-0.3858,-0.3882,-0.391,-0.3919,-0.3929,-0.3954,-0.3953,-0.3957,-0.3956,-0.3966,-0.3974,-0.3977,-0.3943,-0.3943,-0.3943,-0.3943,0,0,-0.3673,-0.3712,-0.3716,-0.373,-0.376,-0.3777,-0.3799,-0.3826,-0.3838,-0.3861,-0.388,-0.3914,-0.3917,-0.3934,-0.3947,-0.3961,-0.3976,-0.3963,-0.3964,-0.3965,-0.4006,-0.4004,-0.4007,-0.3982,-0.3982,-0.3983,-0.4004,0,-0.3688,-0.3725,-0.3741,-0.3772,-0.3792,-0.3806,-0.3825,-0.3847,-0.3862,-0.3883,-0.39,-0.3924,-0.3926,-0.3937,-0.3951,-0.3971,-0.3984,-0.397,-0.4002,-0.4003,-0.3995,-0.401,-0.4008,-0.4027,-0.4007,-0.4008,-0.4008,0,-0.3711,-0.3732,-0.3765,-0.3793,-0.3802,-0.3819,-0.3845,-0.3864,-0.3889,-0.39,-0.3918,-0.3931,-0.3955,-0.3953,-0.3988,-0.3978,-0.3992,-0.4004,-0.4005,-0.4009,-0.4006,-0.4016,-0.4033,-0.4036,-0.4013,-0.4012,-0.4012,0,-0.3712,-0.3749,-0.3773,-0.3785,-0.3818,-0.383,-0.3844,-0.3869,-0.3884,-0.3908,-0.3919,-0.3945,-0.396,-0.3981,-0.4001,-0.3997,-0.4035,-0.4034,-0.4045,-0.4045,-0.4053,-0.4052,-0.4073,-0.4061,-0.4061,-0.4061,-0.4061,0,-0.3728,-0.3747,-0.3774,-0.3789,-0.3812,-0.3831,-0.3853,-0.3869,-0.3891,-0.3911,-0.3925,-0.3943,-0.3968,-0.399,-0.4006,-0.4033,-0.404,-0.405,-0.4054,-0.4049,-0.4048,-0.4059,-0.4059,-0.4061,-0.4061,-0.4061,-0.4061,0,-0.3732,-0.3751,-0.3779,-0.3808,-0.3816,-0.3831,-0.3857,-0.3873,-0.3889,-0.3914,-0.3921,-0.3947,-0.3974,-0.3995,-0.4031,-0.4041,-0.4071,-0.4075,-0.4062,-0.4064,-0.4075,-0.4074,-0.4104,-0.411,-0.4093,-0.4093,-0.4093,0,-0.3741,-0.3757,-0.3787,-0.3801,-0.3815,-0.3837,-0.3852,-0.3872,-0.3888,-0.3918,-0.3931,-0.3959,-0.3982,-0.4024,-0.4047,-0.4075,-0.408,-0.4089,-0.4085,-0.4079,-0.4082,-0.4081,-0.4083,-0.409,-0.409,-0.409,-0.409,0,-0.3756,-0.3765,-0.3786,-0.3811,-0.3829,-0.3849,-0.3871,-0.3881,-0.3905,-0.3923,-0.395,-0.3968,-0.4003,-0.4031,-0.4061,-0.4078,-0.4089,-0.4091,-0.4095,-0.4091,-0.4083,-0.4088,-0.4064,-0.409,-0.409,-0.409,-0.409,-0.409,-0.3764,-0.3779,-0.3803,-0.3826,-0.3844,-0.3864,-0.388,-0.3898,-0.3921,-0.3951,-0.3961,-0.3989,-0.4016,-0.4057,-0.4074,-0.4097,-0.4098,-0.4104,-0.4106,-0.4107,-0.4107,-0.4078,-0.4103,-0.4103,-0.4103,-0.4103,-0.4103,0,-0.378,-0.3796,-0.3818,-0.3847,-0.3866,-0.3872,-0.3896,-0.3912,-0.3936,-0.3959,-0.3982,-0.4013,-0.4041,-0.4066,-0.4094,-0.4109,-0.4114,-0.4116,-0.4115,-0.4119,-0.4104,-0.4098,-0.4111,-0.4111,-0.4111,-0.4111,-0.4111,-0.4111,-0.3791,-0.3816,-0.3828,-0.3863,-0.3879,-0.3905,-0.3919,-0.3938,-0.3956,-0.3991,-0.4013,-0.4028,-0.4053,-0.4084,-0.411,-0.4117,-0.4127,-0.4127,-0.4136,-0.4121,-0.412,-0.4119,-0.4113,-0.4129,-0.4129,-0.4149,-0.4149,-0.4149]},{"header":{"parameterUnit":"m.s-1","parameterCategory":1,"la1":30.2991,"la2":30.254,"lo1":-89.0895,"lo2":-89.0444,"dy":0.0017,"dx":0.0017,"nx":28,"ny":28,"refTime":"2024-07-03T03:00:00:Z","depth":0,"parameterNumber":3,"parameterNumberName":"V-component_of_WINDS"},"data":[0,0,0,0,0,0,0,0,0,0,0,0,0,0,0,0,0,0,0,0,0,0,0,0,0,0,0,0,0,0,0,0,0,0,0,0,0,0,0,0,0,0,0,0,0,0,0,0,0,0,0,0,0,0,0,0,0,0,3.8035,3.8035,0,3.8108,3.8109,3.811,3.8062,3.806,3.8058,3.8056,3.8127,3.813,3.8134,0,0,0,0,0,0,0,0,0,0,0,0,0,3.7848,3.7852,3.8035,3.8035,3.8036,3.8108,3.8109,3.811,3.8063,3.806,3.8057,3.8055,3.8125,3.813,3.8135,0,0,0,0,0,0,0,0,0,0,0,0,0,3.7926,3.7853,3.8034,3.8022,3.8021,3.8108,3.8109,3.811,3.8063,3.806,3.8057,3.8054,3.8124,3.8129,3.8135,3.8237,0,0,3.8153,3.8156,0,0,0,0,0,0,0,0,3.7922,3.7933,3.8023,3.8023,3.8022,3.8073,3.8069,3.8153,3.8064,3.8047,3.8056,3.8052,3.8111,3.8118,3.8139,3.824,3.8243,3.8154,3.8157,3.816,3.8161,0,0,0,0,0,0,0,3.7916,3.793,3.8063,3.8024,3.8024,3.801,3.8018,3.8085,3.8096,3.8048,3.8045,3.8055,3.811,3.8133,3.814,3.8244,3.8154,3.8159,3.8162,3.8165,3.8432,3.8435,0,0,0,0,0,0,3.7913,3.7925,3.8061,3.8066,3.7963,3.8017,3.8025,3.806,3.8096,3.8098,3.8057,3.8052,3.8125,3.8133,3.8142,3.8263,3.816,3.8165,3.8169,3.8429,3.8433,3.8437,0,0,0,0,0,0,3.7909,3.7925,3.8058,3.7995,3.8011,3.8023,3.8063,3.8063,3.8086,3.8103,3.8104,3.8079,3.8122,3.8134,3.8214,3.8265,3.8168,3.8173,3.8424,3.843,3.8435,3.8506,0,0,0,0,0,0,3.7904,3.7924,3.7964,3.7996,3.8014,3.813,3.8066,3.8067,3.8097,3.809,3.8123,3.8125,3.8121,3.8205,3.822,3.8271,3.8178,3.842,3.8427,3.8433,3.8499,3.8513,3.8525,0,0,0,0,0,3.7897,3.7981,3.7967,3.7983,3.8065,3.8133,3.8144,3.8138,3.8101,3.814,3.8151,3.8124,3.8257,3.8214,3.823,3.8283,3.8416,3.8425,3.8433,3.8493,3.851,3.8524,0,0,0,0,0,0,3.7953,3.7985,3.7969,3.8066,3.8098,3.8125,3.8175,3.8156,3.8198,3.8191,3.818,3.8188,3.8272,3.8285,3.8237,3.8383,3.8331,3.8342,3.8371,3.8387,3.84,3.8394,3.8183,0,0,0,0,0,3.7977,3.8032,3.8055,3.8138,3.8155,3.8163,3.8192,3.8185,3.8217,3.823,3.8246,3.8277,3.8325,3.8357,3.8403,3.8501,3.8506,3.8545,3.8558,3.8569,3.8579,3.863,3.8647,3.8463,3.8463,3.8463,0,0,3.8026,3.805,3.8085,3.815,3.8174,3.8229,3.8174,3.8235,3.8275,3.8238,3.8315,3.8328,3.8361,3.8451,3.8491,3.8465,3.8631,3.8579,3.8587,3.8591,3.864,3.8658,3.8673,3.8469,3.8468,3.8467,0,0,3.8143,3.8168,3.8239,3.8264,3.8301,3.8306,3.8323,3.8354,3.8361,3.8439,3.8412,3.8459,3.8543,3.8567,3.8591,3.8718,3.8694,3.8733,3.88,3.885,3.8865,3.8877,3.8921,3.8937,3.8742,3.8743,3.8743,0,3.8199,3.8283,3.8277,3.834,3.8369,3.834,3.841,3.8435,3.8484,3.8504,3.8475,3.8579,3.86,3.8694,3.8725,3.8745,3.8763,3.8728,3.8863,3.8876,3.8888,3.8929,3.8946,3.8747,3.8747,3.8746,3.8746,0,3.8349,3.8407,3.846,3.851,3.8544,3.8611,3.8614,3.8649,3.8639,3.8646,3.8724,3.8748,3.8798,3.8819,3.881,3.8912,3.8895,3.8865,3.8811,3.891,3.8949,3.8965,3.8753,3.8752,3.875,3.8749,0,0,3.8502,3.8549,3.8568,3.859,3.8629,3.8673,3.8738,3.8788,3.8818,3.8853,3.8905,3.8977,3.895,3.8976,3.8969,3.9014,3.9111,3.8978,3.8978,3.9001,3.9223,3.9244,3.9263,3.9096,3.9099,3.9101,3.922,0,3.8621,3.8736,3.8732,3.8838,3.8891,3.8864,3.892,3.8949,3.8957,3.9002,3.901,3.9061,3.9021,3.9037,3.908,3.909,3.9155,3.9082,3.9143,3.9145,3.9134,3.9284,3.9307,3.9417,3.9235,3.9238,3.9239,0,3.8775,3.8816,3.8928,3.8958,3.898,3.9031,3.9076,3.912,3.9151,3.9154,3.9184,3.917,3.9233,3.918,3.9266,3.9216,3.9241,3.9249,3.9254,3.9258,3.9197,3.9291,3.9453,3.9469,3.9264,3.9262,3.926,0,3.8874,3.8958,3.9035,3.9055,3.9093,3.9129,3.9146,3.9175,3.9205,3.9243,3.9262,3.9308,3.9332,3.9367,3.9364,3.9325,3.9451,3.9398,3.9454,3.9454,3.9481,3.9479,3.9647,3.9499,3.9499,3.9498,3.9498,0,3.9006,3.9075,3.908,3.9128,3.9204,3.9199,3.9273,3.9286,3.9312,3.936,3.934,3.9385,3.938,3.9425,3.9423,3.9494,3.9505,3.9508,3.9507,3.9509,3.9509,3.9525,3.9516,3.9503,3.9502,3.9501,3.95,0,3.913,3.9136,3.9219,3.9248,3.9257,3.9311,3.9336,3.938,3.9386,3.9447,3.9461,3.9471,3.9523,3.9525,3.9584,3.9583,3.9669,3.966,3.9659,3.9657,3.9712,3.9707,3.9896,3.992,3.9757,3.9759,3.976,0,3.9213,3.9266,3.9301,3.9333,3.9352,3.9403,3.9434,3.9431,3.9463,3.9503,3.9542,3.9592,3.9632,3.9716,3.9728,3.9773,3.9763,3.9826,3.9769,3.977,3.9762,3.9759,3.9763,3.9837,3.9839,3.984,3.9841,0,3.936,3.936,3.9406,3.9454,3.9491,3.9528,3.9562,3.9588,3.9588,3.9626,3.968,3.9711,3.9772,3.9821,3.9865,3.988,3.9861,3.986,3.9875,3.9877,3.9874,3.9875,3.9688,3.9855,3.9853,3.9852,3.9852,3.9851,3.9465,3.951,3.9542,3.9593,3.9619,3.9651,3.9694,3.9706,3.9751,3.9802,3.9797,3.9856,3.9885,3.9942,3.9961,4.0006,3.9984,4.0006,4.0012,4.0017,4.0022,3.9868,4.0014,4.0014,4.0013,4.0013,4.0013,0,3.9609,3.9628,3.9676,3.9725,3.9765,3.9745,3.9781,3.9815,3.9868,3.9898,3.9938,3.9999,4.0047,4.0063,4.0109,4.0142,4.0134,4.0154,4.0151,4.0154,4.004,4.0022,4.016,4.016,4.016,4.016,4.016,4.016,3.9689,3.9764,3.9768,3.9855,3.9873,3.9932,3.9955,3.9984,4.0007,4.0077,4.0117,4.0128,4.0151,4.0199,4.0241,4.0244,4.0262,4.0285,4.0285,4.0177,4.0163,4.0148,4.0131,4.0289,4.029,4.0395,4.0396,4.0396]}]]